Regional Weather Roundup
Issued by NWS

Home | Current Version | Previous Version | Text Only | Print | Product List | Glossary On
Versions: 1 2 3 4 5 6 7 8 9 10 11 12 13 14 15 16 17 18 19 20 21 22 23 24 25 26 27 28 29 30 31 32 33 34 35 36 37 38 39 40 41 42 43 44 45 46 47 48 49 50
000
ASUS43 KLSX 250659
RWRMO

WEATHER SUMMARY FOR MISSOURI
NATIONAL WEATHER SERVICE SPRINGFIELD MO
200 AM CDT THU MAY 25 2017

NOTE: "FAIR" INDICATES FEW OR NO CLOUDS BELOW 12,000 FEET WITH NO
       SIGNIFICANT WEATHER AND/OR OBSTRUCTIONS TO VISIBILITY.
       CURRENT SKY AND/OR WEATHER CONDITIONS ARE NOT AVAILABLE FOR
       CHILLICOTHE AND FARMINGTON.

MOZ001>031-035>038-043-044-053-054-250800-
...NORTHERN AND WESTERN MISSOURI...

CITY           SKY/WX    TMP DP  RH WIND       PRES   REMARKS
KANSAS CTY INT CLEAR     52  47  83 E3        29.69F
KANSAS C DTWN  CLEAR     52  50  93 CALM      29.69F
LEE`S SUMMIT   CLEAR     52  49  89 CALM      29.70F
ST JOSEPH      CLEAR     48  48 100 CALM      29.69F
CHILLICOTHE      N/A     48  46  93 CALM      29.70F
KIRKSVILLE     CLEAR     47  46  97 NW3       29.68F FOG

$$
MOZ066>068-077>081-088>096-101>105-250800-
...SOUTHWEST MISSOURI...

CITY           SKY/WX    TMP DP  RH WIND       PRES   REMARKS
SPRINGFIELD    CLEAR     49  48  97 SW3       29.71S
JOPLIN         CLEAR     50  49  96 SE3       29.73S

$$
MOZ032>034-039>042-045>050-055>058-069>072-250800-
...CENTRAL MISSOURI...

CITY           SKY/WX    TMP DP  RH WIND       PRES   REMARKS
COLUMBIA       CLEAR     51  50  96 W6        29.67F
JEFFERSON CITY CLEAR     53  49  86 NW3       29.67F
ROLLA          CLEAR     50  49  96 W8        29.67R
SEDALIA        CLEAR     54  53  97 W3        29.70F
WARRENSBURG    CLEAR     48  46  93 CALM      29.70S FOG
OSAGE BEACH    CLEAR     48  47  96 W3        29.70S

$$
MOZ051-052-059>065-250800-
...EAST CENTRAL MISSOURI...

CITY           SKY/WX    TMP DP  RH WIND       PRES   REMARKS
ST LOUIS INTL  CLEAR     57  51  80 W7        29.63S
SPIRIT OF STL  CLEAR     54  52  93 W6        29.63S
ST CHARLES     CLEAR     56  53  90 NW7       29.62S

$$
MOZ072>076-082>087-097>100-106>115-250800-
...SOUTH CENTRAL AND SOUTHEAST MISSOURI...

CITY           SKY/WX    TMP DP  RH WIND       PRES   REMARKS
CAPE GIRARDEAU CLEAR     53  48  83 W8        29.62S
FARMINGTON     CLEAR     51  48  89 NW5       29.65S
POPLAR BLUFF   CLEAR     53  49  86 W7        29.65S
WEST PLAINS    CLEAR     49  47  93 W6        29.71R

$$




USA.gov is the U.S. government's official web portal to all federal, state and local government web resources and services.